Date,TemperatureHighF,TemperatureAvgF,TemperatureLowF,DewpointHighF,DewpointAvgF,DewpointLowF,HumidityHigh,HumidityAvg,HumidityLow,PressureMaxIn,PressureMinIn,WindSpeedMaxMPH,WindSpeedAvgMPH,GustSpeedMaxMPH,PrecipitationSumIn
2013-2-1,51,42,33,30,22,14,66,48,27,30.40,30.17,11,1,11,0.00
2013-2-2,64,46,33,42,33,24,81,61,37,30.22,30.11,10,0,10,0.00
2013-2-3,65,50,34,45,32,21,86,56,22,30.24,29.98,7,0,7,0.00
2013-2-4,56,52,48,50,42,26,89,70,39,29.98,29.78,6,0,6,0.05
2013-2-5,67,55,50,55,50,44,94,84,57,29.97,29.84,5,0,5,0.00
2013-2-6,56,51,46,53,49,44,95,92,81,30.04,29.91,7,0,7,0.10
2013-2-7,64,58,53,59,54,51,95,88,74,29.92,29.79,11,0,11,0.01
2013-2-8,62,54,42,54,42,31,92,67,34,30.15,29.87,10,1,10,0.00
2013-2-9,52,44,38,46,39,34,90,81,67,30.17,29.83,12,2,12,0.09
2013-2-10,69,60,51,64,44,25,94,63,23,29.93,29.66,14,2,14,0.27
2013-2-11,57,51,46,40,35,28,73,55,36,30.11,29.93,10,0,10,0.01
2013-2-12,47,44,42,43,41,36,94,88,73,30.05,29.77,15,1,15,0.53
2013-2-13,52,44,38,41,37,32,94,79,56,30.05,29.84,9,1,9,0.00
2013-2-14,38,37,36,34,34,33,89,87,86,29.99,29.99,1,0,1,0.00
2013-2-20,34,34,34,31,30,30,88,86,84,30.00,29.94,9,3,9,0.29
2013-2-21,43,39,34,40,36,29,93,88,80,29.95,29.62,13,2,13,0.16
2013-2-22,52,43,36,42,36,31,94,79,53,30.03,29.84,5,0,5,0.00
2013-2-23,54,42,31,37,33,27,89,72,49,30.01,29.87,10,0,10,0.00
2013-2-24,65,49,35,39,35,32,89,62,32,29.96,29.69,11,1,11,0.00
2013-2-25,56,50,44,52,43,33,92,77,60,29.70,29.31,12,1,12,0.20
2013-2-26,52,44,39,37,34,30,85,69,50,29.83,29.40,18,3,18,0.00
2013-2-27,39,36,33,32,30,29,85,80,76,29.85,29.83,0,0,0,0.00
2013-2-28,55,47,33,32,28,21,77,51,34,30.13,30.04,9,1,11,0.00